Location: Litvinovka
(48.6667°N, 34.3500°E)
Time: 16:06:52
(UTC+00:00)

ATLAS CENTAUR R/B - Pass Details

Date: 18 September 2020
Orbit: 479 x 667 km, 64.7° (Epoch: 12 October)

Event Time Altitude Azimuth Distance (km) Brightness Sun altitude
Rises 16:11:14 0° 250° (WSW) 2,678 6.1 -4.6°
Reaches altitude 10° 16:13:44 10° 263° (W) 1,758 5.5 -5.0°
Maximum altitude 16:17:03 26° 321° (NW) 1,031 3.4 -5.5°
Drops below altitude 10° 16:20:17 10° 20° (NNE) 1,698 3.7 -6.1°
Sets 16:22:39 0° 34° (NNE) 2,565 4.5 -6.4°
